ELY542 LGAV-LLBG

Flight info

Callsign ELY542
Flight time 1h 32m
Altitude 39000
Route KEA N132 TUXEM UT514 PEXAN UM601 MADEX UN132 KUPIS UN134 VANZA DCT PIKOG L609 ZUKKO
Aircraft B772/H-SDE2E3FGHIJ5LORVWXY/LB1D1

Departure

Time 2026-05-05 00:24
Airport Athens Eleftherios Venizelos International Airport (LGAV)

Arrival

Time 2026-05-05 01:56
Airport Ben Gurion International Airport (LLBG)
Time Latitude Longitude Altitude Speed Heading
2026-05-04 23:24 37.93324 23.94585 305 ft 0 kts 306°
2026-05-05 00:08 37.93321 23.94590 305 ft 4 kts 307°
2026-05-05 00:08 37.93304 23.94617 306 ft 3 kts 308°
2026-05-05 00:09 37.93292 23.94639 304 ft 4 kts 282°
2026-05-05 00:09 37.93293 23.94662 303 ft 4 kts 233°
2026-05-05 00:09 37.93311 23.94684 305 ft 4 kts 216°
2026-05-05 00:09 37.93318 23.94690 305 ft 0 kts 217°
2026-05-05 00:13 37.93315 23.94687 305 ft 1 kts 217°
2026-05-05 00:13 37.93307 23.94680 304 ft 3 kts 217°
2026-05-05 00:13 37.93288 23.94662 303 ft 3 kts 217°
2026-05-05 00:14 37.93269 23.94644 306 ft 3 kts 217°
2026-05-05 00:14 37.93262 23.94637 307 ft 0 kts 217°
2026-05-05 00:18 37.93257 23.94632 308 ft 3 kts 217°
2026-05-05 00:18 37.93242 23.94618 308 ft 3 kts 217°
2026-05-05 00:19 37.93225 23.94605 308 ft 3 kts 199°
2026-05-05 00:19 37.93204 23.94599 308 ft 3 kts 186°
2026-05-05 00:19 37.93182 23.94598 307 ft 3 kts 183°
2026-05-05 00:19 37.93159 23.94596 306 ft 3 kts 183°
2026-05-05 00:20 37.93136 23.94594 308 ft 3 kts 183°
2026-05-05 00:20 37.93113 23.94592 306 ft 4 kts 183°
2026-05-05 00:20 37.93074 23.94580 306 ft 7 kts 205°
2026-05-05 00:20 37.93014 23.94533 309 ft 12 kts 214°
2026-05-05 00:21 37.92949 23.94471 308 ft 12 kts 217°
2026-05-05 00:21 37.92886 23.94410 308 ft 12 kts 217°
2026-05-05 00:21 37.92821 23.94347 308 ft 12 kts 216°
2026-05-05 00:21 37.92756 23.94287 310 ft 12 kts 216°
2026-05-05 00:22 37.92692 23.94227 310 ft 12 kts 216°
2026-05-05 00:22 37.92619 23.94204 310 ft 12 kts 153°
2026-05-05 00:22 37.92563 23.94277 310 ft 12 kts 126°
2026-05-05 00:22 37.92516 23.94361 312 ft 12 kts 125°
2026-05-05 00:23 37.92502 23.94453 313 ft 12 kts 60°
2026-05-05 00:23 37.92565 23.94525 313 ft 16 kts 38°
2026-05-05 00:23 37.92842 23.94788 306 ft 88 kts 36°
2026-05-05 00:23 37.93528 23.95440 295 ft 156 kts 37°
2026-05-05 00:24 37.94458 23.96319 856 ft 166 kts 36°
2026-05-05 00:24 37.95354 23.97178 1611 ft 171 kts 36°
2026-05-05 00:24 37.96217 23.98250 2208 ft 177 kts 48°
2026-05-05 00:24 37.96939 23.99593 2702 ft 197 kts 58°
2026-05-05 00:25 37.97589 24.01269 2951 ft 227 kts 64°
2026-05-05 00:25 37.98167 24.03264 3250 ft 254 kts 70°
2026-05-05 00:25 37.98612 24.05468 4040 ft 261 kts 76°
2026-05-05 00:25 37.98852 24.07756 5021 ft 263 kts 83°
2026-05-05 00:26 37.98889 24.10082 6003 ft 264 kts 85°
2026-05-05 00:26 37.98890 24.12414 6916 ft 266 kts 85°
2026-05-05 00:26 37.98907 24.14781 7699 ft 271 kts 85°
2026-05-05 00:26 37.98936 24.17193 8497 ft 276 kts 84°
2026-05-05 00:27 37.98970 24.19652 9321 ft 281 kts 84°
2026-05-05 00:27 37.98739 24.22127 9985 ft 294 kts 105°
2026-05-05 00:27 37.97664 24.24376 10512 ft 316 kts 129°
2026-05-05 00:27 37.95813 24.26096 10720 ft 348 kts 153°
2026-05-05 00:28 37.93413 24.27024 11034 ft 372 kts 170°
2026-05-05 00:28 37.90807 24.27369 11778 ft 382 kts 176°
2026-05-05 00:28 37.88124 24.27517 12677 ft 388 kts 179°
2026-05-05 00:28 37.85411 24.27630 13703 ft 391 kts 179°
2026-05-05 00:29 37.82675 24.27768 14588 ft 396 kts 178°
2026-05-05 00:29 37.79902 24.27943 15469 ft 401 kts 177°
2026-05-05 00:29 37.77105 24.28147 16345 ft 405 kts 177°
2026-05-05 00:29 37.74271 24.28372 17222 ft 410 kts 176°
2026-05-05 00:30 37.71401 24.28608 18095 ft 416 kts 176°
2026-05-05 00:30 37.68501 24.28848 18884 ft 420 kts 176°
2026-05-05 00:30 37.65561 24.29092 19706 ft 424 kts 176°
2026-05-05 00:30 37.62611 24.29334 20555 ft 427 kts 176°
2026-05-05 00:31 37.59634 24.29578 21384 ft 430 kts 176°
2026-05-05 00:31 37.56704 24.30179 21978 ft 432 kts 160°
2026-05-05 00:31 37.54029 24.31906 22637 ft 436 kts 141°
2026-05-05 00:31 37.51800 24.34492 23372 ft 435 kts 134°
2026-05-05 00:32 37.49653 24.37218 23985 ft 441 kts 133°
2026-05-05 00:32 37.47485 24.39977 24584 ft 445 kts 133°
2026-05-05 00:32 37.45293 24.42752 25197 ft 449 kts 134°
2026-05-05 00:32 37.43074 24.45540 25761 ft 453 kts 134°
2026-05-05 00:33 37.40827 24.48343 26328 ft 457 kts 134°
2026-05-05 00:33 37.38555 24.51164 26852 ft 461 kts 134°
2026-05-05 00:33 37.36256 24.54005 27355 ft 465 kts 135°
2026-05-05 00:33 37.33970 24.56827 27852 ft 469 kts 135°
2026-05-05 00:34 37.31633 24.59708 28325 ft 472 kts 135°
2026-05-05 00:34 37.29277 24.62609 28802 ft 476 kts 135°
2026-05-05 00:34 37.26898 24.65536 29271 ft 479 kts 135°
2026-05-05 00:34 37.24512 24.68472 29668 ft 483 kts 135°
2026-05-05 00:35 37.22103 24.71432 30034 ft 487 kts 135°
2026-05-05 00:35 37.19668 24.74422 30376 ft 490 kts 135°
2026-05-05 00:35 37.17221 24.77424 30636 ft 495 kts 135°
2026-05-05 00:35 37.14754 24.80446 30866 ft 499 kts 135°
2026-05-05 00:36 37.12261 24.83499 31112 ft 503 kts 135°
2026-05-05 00:36 37.09749 24.86572 31341 ft 506 kts 135°
2026-05-05 00:36 37.07220 24.89662 31575 ft 509 kts 135°
2026-05-05 00:36 37.04675 24.92769 31810 ft 512 kts 135°
2026-05-05 00:37 37.02121 24.95884 32009 ft 515 kts 135°
2026-05-05 00:37 36.99549 24.99020 32280 ft 516 kts 135°
2026-05-05 00:37 36.96970 25.02158 32569 ft 517 kts 135°
2026-05-05 00:37 36.94276 25.05154 32834 ft 519 kts 142°
2026-05-05 00:38 36.91285 25.07679 33090 ft 520 kts 150°
2026-05-05 00:38 36.88086 25.09776 33379 ft 520 kts 157°
2026-05-05 00:38 36.84701 25.11375 33648 ft 520 kts 165°
2026-05-05 00:38 36.81230 25.12677 33897 ft 521 kts 165°
2026-05-05 00:39 36.77763 25.14010 34154 ft 523 kts 164°
2026-05-05 00:39 36.74332 25.15542 34322 ft 525 kts 155°
2026-05-05 00:39 36.71277 25.18050 34481 ft 529 kts 137°
2026-05-05 00:39 36.68889 25.21515 34812 ft 525 kts 121°
2026-05-05 00:40 36.67184 25.25502 35155 ft 520 kts 108°
2026-05-05 00:40 36.66291 25.29760 35431 ft 511 kts 94°
2026-05-05 00:40 36.65793 25.34136 35658 ft 513 kts 98°
2026-05-05 00:40 36.64759 25.38420 35858 ft 520 kts 111°
2026-05-05 00:41 36.63020 25.42381 36161 ft 523 kts 124°
2026-05-05 00:41 36.60669 25.45835 36457 ft 523 kts 135°
2026-05-05 00:41 36.58026 25.48959 36646 ft 525 kts 136°
2026-05-05 00:41 36.55353 25.52066 36858 ft 526 kts 136°
2026-05-05 00:42 36.52688 25.55188 37135 ft 526 kts 136°
2026-05-05 00:42 36.50042 25.58334 37404 ft 526 kts 135°
2026-05-05 00:42 36.47412 25.61499 37671 ft 526 kts 135°
2026-05-05 00:42 36.44790 25.64678 37926 ft 527 kts 135°
2026-05-05 00:43 36.42167 25.67863 38146 ft 527 kts 135°
2026-05-05 00:43 36.39546 25.71043 38407 ft 528 kts 135°
2026-05-05 00:43 36.36915 25.74225 38646 ft 528 kts 135°
2026-05-05 00:43 36.34279 25.77408 38853 ft 529 kts 135°
2026-05-05 00:44 36.31644 25.80585 39023 ft 530 kts 135°
2026-05-05 00:44 36.26486 25.87054 39101 ft 530 kts 129°
2026-05-05 00:45 36.22231 25.94460 39098 ft 526 kts 118°
2026-05-05 00:45 36.18976 26.02532 39099 ft 522 kts 112°
2026-05-05 00:46 36.15957 26.10699 39100 ft 522 kts 112°
2026-05-05 00:46 36.12894 26.18868 39100 ft 523 kts 112°
2026-05-05 00:47 36.09788 26.27017 39099 ft 524 kts 112°
2026-05-05 00:47 36.06668 26.35152 39099 ft 524 kts 113°
2026-05-05 00:48 36.03536 26.43308 39102 ft 525 kts 113°
2026-05-05 00:48 36.00403 26.51454 39084 ft 525 kts 113°
2026-05-05 00:49 35.97285 26.59541 39089 ft 525 kts 113°
2026-05-05 00:49 35.94141 26.67674 39078 ft 525 kts 113°
2026-05-05 00:50 35.90994 26.75797 39079 ft 525 kts 113°
2026-05-05 00:50 35.87820 26.83900 39072 ft 524 kts 114°
2026-05-05 00:51 35.84639 26.91982 39070 ft 524 kts 113°
2026-05-05 00:51 35.81504 27.00093 39068 ft 524 kts 113°
2026-05-05 00:52 35.78340 27.08182 39066 ft 524 kts 114°
2026-05-05 00:52 35.75157 27.16255 39058 ft 524 kts 114°
2026-05-05 00:53 35.71971 27.24327 39056 ft 524 kts 114°
2026-05-05 00:53 35.68782 27.32399 39052 ft 525 kts 114°
2026-05-05 00:54 35.65585 27.40475 39048 ft 525 kts 114°
2026-05-05 00:54 35.62924 27.47181 39048 ft 525 kts 114°
2026-05-05 00:55 35.59195 27.56553 39042 ft 525 kts 114°
2026-05-05 00:55 35.56503 27.63303 39043 ft 525 kts 114°
2026-05-05 00:56 35.53282 27.71359 39043 ft 525 kts 114°
2026-05-05 00:56 35.50063 27.79394 39041 ft 524 kts 114°
2026-05-05 00:57 35.46840 27.87415 39037 ft 524 kts 115°
2026-05-05 00:57 35.43615 27.95426 39035 ft 524 kts 115°
2026-05-05 00:58 35.40383 28.03431 39029 ft 524 kts 115°
2026-05-05 00:58 35.37143 28.11440 39027 ft 524 kts 115°
2026-05-05 00:59 35.33921 28.19384 39026 ft 524 kts 115°
2026-05-05 00:59 35.30673 28.27377 39021 ft 524 kts 115°
2026-05-05 01:00 35.27446 28.35377 39023 ft 524 kts 113°
2026-05-05 01:00 35.24882 28.43707 39022 ft 522 kts 107°
2026-05-05 01:01 35.22569 28.52139 39016 ft 522 kts 107°
2026-05-05 01:01 35.20236 28.60539 39006 ft 522 kts 107°
2026-05-05 01:02 35.17856 28.68943 39004 ft 522 kts 108°
2026-05-05 01:02 35.15462 28.77326 38997 ft 522 kts 108°
2026-05-05 01:03 35.13080 28.85649 38999 ft 522 kts 108°
2026-05-05 01:03 35.10679 28.94026 38995 ft 523 kts 108°
2026-05-05 01:04 35.08271 29.02404 38995 ft 523 kts 108°
2026-05-05 01:04 35.04626 29.15035 38989 ft 523 kts 108°
2026-05-05 01:05 35.02204 29.23399 38982 ft 523 kts 108°
2026-05-05 01:05 34.99774 29.31769 38986 ft 523 kts 109°
2026-05-05 01:06 34.97091 29.39955 38983 ft 523 kts 112°
2026-05-05 01:06 34.94190 29.48098 38969 ft 524 kts 113°
2026-05-05 01:07 34.91287 29.56252 38970 ft 524 kts 113°
2026-05-05 01:07 34.88409 29.64410 38969 ft 524 kts 112°
2026-05-05 01:08 34.85531 29.72576 38972 ft 525 kts 112°
2026-05-05 01:08 34.82644 29.80739 38971 ft 525 kts 113°
2026-05-05 01:09 34.79747 29.88905 38968 ft 526 kts 113°
2026-05-05 01:09 34.76843 29.97070 38966 ft 526 kts 113°
2026-05-05 01:10 34.73436 30.04935 38965 ft 526 kts 122°
2026-05-05 01:10 34.69551 30.12476 38961 ft 527 kts 123°
2026-05-05 01:11 34.65641 30.20006 38965 ft 527 kts 122°
2026-05-05 01:11 34.61758 30.27563 38954 ft 528 kts 122°
2026-05-05 01:12 34.57889 30.35133 38959 ft 528 kts 122°
2026-05-05 01:12 34.54038 30.42660 38961 ft 528 kts 123°
2026-05-05 01:13 34.50164 30.50211 38961 ft 527 kts 123°
2026-05-05 01:13 34.46287 30.57746 38959 ft 526 kts 123°
2026-05-05 01:14 34.42412 30.65260 38952 ft 525 kts 123°
2026-05-05 01:14 34.38539 30.72754 38956 ft 524 kts 123°
2026-05-05 01:15 34.34665 30.80237 38953 ft 524 kts 123°
2026-05-05 01:15 34.30792 30.87701 38950 ft 523 kts 123°
2026-05-05 01:16 34.26926 30.95135 38952 ft 522 kts 123°
2026-05-05 01:16 34.23076 31.02524 38954 ft 522 kts 124°
2026-05-05 01:17 34.19200 31.09947 38948 ft 522 kts 124°
2026-05-05 01:17 34.15318 31.17365 38947 ft 523 kts 124°
2026-05-05 01:18 34.11428 31.24785 38946 ft 523 kts 124°
2026-05-05 01:18 34.07525 31.32214 38950 ft 524 kts 124°
2026-05-05 01:19 34.03616 31.39638 38950 ft 524 kts 124°
2026-05-05 01:19 33.99701 31.47060 38945 ft 525 kts 125°
2026-05-05 01:20 33.95782 31.54471 38947 ft 525 kts 125°
2026-05-05 01:20 33.91852 31.61891 38943 ft 525 kts 125°
2026-05-05 01:21 33.87917 31.69304 38942 ft 525 kts 125°
2026-05-05 01:21 33.83982 31.76701 38944 ft 525 kts 125°
2026-05-05 01:22 33.80043 31.84091 38944 ft 525 kts 126°
2026-05-05 01:22 33.76097 31.91480 38943 ft 525 kts 126°
2026-05-05 01:23 33.72148 31.98858 38942 ft 525 kts 126°
2026-05-05 01:23 33.68192 32.06236 38945 ft 525 kts 126°
2026-05-05 01:24 33.64231 32.13606 38946 ft 526 kts 126°
2026-05-05 01:24 33.60257 32.20986 38945 ft 526 kts 126°
2026-05-05 01:25 33.56303 32.28315 38949 ft 527 kts 126°
2026-05-05 01:25 33.52323 32.35676 38946 ft 527 kts 126°
2026-05-05 01:26 33.48328 32.43052 38957 ft 527 kts 127°
2026-05-05 01:26 33.44333 32.50412 38957 ft 527 kts 127°
2026-05-05 01:27 33.40334 32.57764 38953 ft 527 kts 127°
2026-05-05 01:27 33.36334 32.65104 38958 ft 527 kts 127°
2026-05-05 01:28 33.32329 32.72437 38912 ft 527 kts 127°
2026-05-05 01:28 33.30308 32.76130 38216 ft 534 kts 127°
2026-05-05 01:28 33.28277 32.79838 37529 ft 533 kts 127°
2026-05-05 01:29 33.26250 32.83540 36842 ft 531 kts 127°
2026-05-05 01:29 33.24230 32.87224 36162 ft 530 kts 127°
2026-05-05 01:29 33.22206 32.90912 35432 ft 530 kts 128°
2026-05-05 01:29 33.20179 32.94600 34613 ft 533 kts 128°
2026-05-05 01:30 33.18138 32.98307 33766 ft 536 kts 128°
2026-05-05 01:30 33.16087 33.02028 32823 ft 537 kts 128°
2026-05-05 01:30 33.14026 33.05765 31880 ft 539 kts 128°
2026-05-05 01:30 33.11963 33.09503 30904 ft 541 kts 128°
2026-05-05 01:31 33.09893 33.13252 30002 ft 541 kts 128°
2026-05-05 01:31 33.07838 33.16972 29242 ft 533 kts 128°
2026-05-05 01:31 33.05815 33.20634 28508 ft 525 kts 128°
2026-05-05 01:31 33.03818 33.24242 27832 ft 517 kts 127°
2026-05-05 01:32 33.01848 33.27797 27156 ft 510 kts 127°
2026-05-05 01:32 32.99907 33.31292 26489 ft 504 kts 127°
2026-05-05 01:32 32.97982 33.34755 25826 ft 498 kts 127°
2026-05-05 01:32 32.96077 33.38177 25182 ft 492 kts 127°
2026-05-05 01:33 32.94196 33.41555 24542 ft 487 kts 127°
2026-05-05 01:33 32.92333 33.44897 23905 ft 483 kts 127°
2026-05-05 01:33 32.90507 33.48172 23202 ft 479 kts 127°
2026-05-05 01:33 32.88673 33.51458 22501 ft 474 kts 127°
2026-05-05 01:34 32.86863 33.54701 21871 ft 468 kts 127°
2026-05-05 01:34 32.85067 33.57914 21234 ft 462 kts 127°
2026-05-05 01:34 32.83285 33.61066 20614 ft 456 kts 128°
2026-05-05 01:34 32.81354 33.64017 20010 ft 448 kts 135°
2026-05-05 01:35 32.79227 33.66682 19408 ft 442 kts 138°
2026-05-05 01:35 32.77086 33.69280 18814 ft 438 kts 138°
2026-05-05 01:35 32.74967 33.71849 18216 ft 434 kts 137°
2026-05-05 01:35 32.72872 33.74405 17540 ft 430 kts 137°
2026-05-05 01:36 32.70798 33.76948 16906 ft 426 kts 137°
2026-05-05 01:36 32.68750 33.79469 16315 ft 422 kts 137°
2026-05-05 01:36 32.66723 33.81965 15715 ft 418 kts 137°
2026-05-05 01:36 32.64716 33.84436 15150 ft 414 kts 137°
2026-05-05 01:37 32.62722 33.86889 14581 ft 411 kts 137°
2026-05-05 01:37 32.60744 33.89320 14015 ft 408 kts 137°
2026-05-05 01:37 32.58781 33.91730 13445 ft 405 kts 137°
2026-05-05 01:37 32.56828 33.94128 12828 ft 402 kts 137°
2026-05-05 01:38 32.54897 33.96509 12266 ft 398 kts 137°
2026-05-05 01:38 32.52996 33.98880 11811 ft 392 kts 136°
2026-05-05 01:38 32.51160 34.01180 11661 ft 378 kts 136°
2026-05-05 01:38 32.49396 34.03389 11485 ft 356 kts 136°
2026-05-05 01:39 32.48296 34.04764 11386 ft 339 kts 137°
2026-05-05 01:39 32.46734 34.06714 11262 ft 315 kts 137°
2026-05-05 01:39 32.45270 34.08536 11000 ft 299 kts 137°
2026-05-05 01:39 32.43843 34.10307 10432 ft 296 kts 136°
2026-05-05 01:40 32.42538 34.13090 10024 ft 292 kts 106°
2026-05-05 01:40 32.42224 34.14654 9806 ft 290 kts 103°
2026-05-05 01:40 32.41683 34.17741 9365 ft 288 kts 102°
2026-05-05 01:40 32.41415 34.19305 9169 ft 287 kts 102°
2026-05-05 01:41 32.41023 34.21573 8856 ft 285 kts 103°
2026-05-05 01:41 32.40615 34.23898 8545 ft 283 kts 103°
2026-05-05 01:41 32.40209 34.26174 8241 ft 282 kts 103°
2026-05-05 01:41 32.39808 34.28409 7980 ft 279 kts 103°
2026-05-05 01:42 32.39405 34.30649 7679 ft 278 kts 103°
2026-05-05 01:42 32.38997 34.32909 7355 ft 278 kts 103°
2026-05-05 01:42 32.38599 34.35110 7086 ft 276 kts 103°
2026-05-05 01:42 32.38198 34.37325 6800 ft 275 kts 103°
2026-05-05 01:43 32.37799 34.39529 6520 ft 273 kts 103°
2026-05-05 01:43 32.37402 34.41715 6219 ft 272 kts 103°
2026-05-05 01:43 32.37007 34.43893 5942 ft 270 kts 103°
2026-05-05 01:43 32.36614 34.46056 5638 ft 269 kts 103°
2026-05-05 01:44 32.36219 34.48228 5295 ft 270 kts 103°
2026-05-05 01:44 32.35827 34.50382 5069 ft 265 kts 103°
2026-05-05 01:44 32.35437 34.52469 5007 ft 255 kts 107°
2026-05-05 01:44 32.34825 34.54460 4999 ft 262 kts 115°
2026-05-05 01:45 32.34079 34.56442 4969 ft 265 kts 116°
2026-05-05 01:45 32.33312 34.58451 4995 ft 271 kts 116°
2026-05-05 01:45 32.32554 34.60467 4963 ft 266 kts 116°
2026-05-05 01:45 32.31806 34.62481 4986 ft 270 kts 116°
2026-05-05 01:46 32.31058 34.64520 4967 ft 271 kts 115°
2026-05-05 01:46 32.30311 34.66565 4965 ft 271 kts 115°
2026-05-05 01:46 32.29568 34.68609 4974 ft 270 kts 115°
2026-05-05 01:46 32.28826 34.70649 4973 ft 270 kts 115°
2026-05-05 01:47 32.28085 34.72685 4970 ft 271 kts 115°
2026-05-05 01:47 32.27338 34.74733 4936 ft 271 kts 115°
2026-05-05 01:47 32.26601 34.76754 4764 ft 264 kts 115°
2026-05-05 01:47 32.25882 34.78722 4601 ft 258 kts 115°
2026-05-05 01:48 32.25208 34.80658 4422 ft 252 kts 110°
2026-05-05 01:48 32.24693 34.82607 4291 ft 245 kts 108°
2026-05-05 01:48 32.24223 34.84507 4144 ft 237 kts 108°
2026-05-05 01:48 32.23763 34.86331 4048 ft 229 kts 108°
2026-05-05 01:49 32.23297 34.88146 4007 ft 232 kts 108°
2026-05-05 01:49 32.22826 34.89971 3887 ft 231 kts 108°
2026-05-05 01:49 32.22366 34.91748 3781 ft 228 kts 108°
2026-05-05 01:49 32.21906 34.93520 3667 ft 222 kts 109°
2026-05-05 01:50 32.21462 34.95226 3603 ft 210 kts 109°
2026-05-05 01:50 32.21039 34.96850 3527 ft 207 kts 109°
2026-05-05 01:50 32.20474 34.98375 3419 ft 200 kts 135°
2026-05-05 01:50 32.19350 34.99180 3360 ft 186 kts 174°
2026-05-05 01:51 32.18084 34.99240 3394 ft 183 kts 189°
2026-05-05 01:51 32.16804 34.99134 3397 ft 184 kts 191°
2026-05-05 01:51 32.15584 34.98788 3189 ft 179 kts 208°
2026-05-05 01:51 32.14465 34.98182 2968 ft 176 kts 211°
2026-05-05 01:52 32.13417 34.97545 2762 ft 161 kts 214°
2026-05-05 01:52 32.12466 34.96935 2536 ft 152 kts 213°
2026-05-05 01:52 32.11577 34.96359 2334 ft 140 kts 215°
2026-05-05 01:52 32.10764 34.95830 2168 ft 131 kts 214°
2026-05-05 01:53 32.09964 34.95309 1989 ft 131 kts 214°
2026-05-05 01:53 32.09173 34.94794 1791 ft 128 kts 213°
2026-05-05 01:53 32.08385 34.94285 1630 ft 129 kts 214°
2026-05-05 01:53 32.07615 34.93784 1450 ft 128 kts 213°
2026-05-05 01:54 32.06829 34.93272 1274 ft 130 kts 212°
2026-05-05 01:54 32.06032 34.92756 1083 ft 131 kts 212°
2026-05-05 01:54 32.05221 34.92250 913 ft 132 kts 210°
2026-05-05 01:54 32.04417 34.91721 761 ft 134 kts 211°
2026-05-05 01:55 32.03606 34.91209 589 ft 131 kts 211°
2026-05-05 01:55 32.02793 34.90683 398 ft 133 kts 213°
2026-05-05 01:55 32.01999 34.90154 217 ft 129 kts 212°
2026-05-05 01:55 32.01242 34.89658 122 ft 113 kts 211°
2026-05-05 01:56 32.00666 34.89280 121 ft 65 kts 208°
2026-05-05 01:56 32.00521 34.89190 120 ft 5 kts 208°
2026-05-05 01:56 32.00488 34.89169 119 ft 6 kts 208°
2026-05-05 01:56 32.00456 34.89144 119 ft 6 kts 226°
2026-05-05 01:57 32.00452 34.89101 119 ft 6 kts 291°
2026-05-05 01:57 32.00470 34.89057 121 ft 6 kts 296°
2026-05-05 01:57 32.00490 34.89012 120 ft 6 kts 298°
2026-05-05 01:57 32.00507 34.88966 122 ft 6 kts 277°
2026-05-05 01:58 32.00478 34.88932 123 ft 6 kts 212°
2026-05-05 01:58 32.00440 34.88906 123 ft 6 kts 209°
2026-05-05 01:58 32.00402 34.88881 121 ft 6 kts 208°
2026-05-05 01:58 32.00364 34.88857 122 ft 6 kts 209°
2026-05-05 01:59 32.00325 34.88832 122 ft 6 kts 209°
2026-05-05 01:59 32.00287 34.88807 122 ft 6 kts 209°
2026-05-05 01:59 32.00249 34.88782 123 ft 6 kts 209°
2026-05-05 01:59 32.00211 34.88757 122 ft 6 kts 209°
2026-05-05 02:00 32.00173 34.88732 121 ft 6 kts 209°
2026-05-05 02:00 32.00135 34.88707 122 ft 6 kts 209°
2026-05-05 02:00 32.00105 34.88672 121 ft 6 kts 245°
2026-05-05 02:00 32.00110 34.88623 121 ft 6 kts 291°
2026-05-05 02:01 32.00130 34.88577 122 ft 6 kts 300°
2026-05-05 02:01 32.00153 34.88530 121 ft 8 kts 301°
2026-05-05 02:01 32.00188 34.88462 122 ft 10 kts 301°
2026-05-05 02:01 32.00226 34.88389 120 ft 10 kts 301°
2026-05-05 02:02 32.00264 34.88317 120 ft 10 kts 301°
2026-05-05 02:02 32.00302 34.88245 121 ft 10 kts 301°
2026-05-05 02:02 32.00339 34.88173 121 ft 10 kts 301°
2026-05-05 02:02 32.00377 34.88101 120 ft 10 kts 301°
2026-05-05 02:03 32.00415 34.88029 123 ft 10 kts 301°
2026-05-05 02:03 32.00452 34.87956 119 ft 10 kts 301°
2026-05-05 02:03 32.00492 34.87880 122 ft 11 kts 301°
2026-05-05 02:03 32.00533 34.87802 121 ft 11 kts 301°
2026-05-05 02:04 32.00574 34.87724 119 ft 11 kts 301°
2026-05-05 02:04 32.00614 34.87647 119 ft 11 kts 301°
2026-05-05 02:04 32.00655 34.87569 122 ft 11 kts 301°
2026-05-05 02:04 32.00694 34.87490 120 ft 11 kts 301°
2026-05-05 02:05 32.00738 34.87407 120 ft 13 kts 301°
2026-05-05 02:05 32.00747 34.87304 122 ft 13 kts 257°
2026-05-05 02:05 32.00726 34.87194 121 ft 14 kts 257°
2026-05-05 02:05 32.00703 34.87085 124 ft 12 kts 253°
2026-05-05 02:06 32.00658 34.87060 121 ft 7 kts 162°
2026-05-05 02:06 32.00631 34.87079 122 ft 4 kts 143°
2026-05-05 02:06 32.00621 34.87088 120 ft 0 kts 142°